Regional Weather Roundup
Issued by NWS Huntsville, AL

Home | Current Version | Previous Version | Text Only | Print | Product List | Glossary On
Versions: 1 2 3 4 5 6 7 8 9 10 11 12 13 14 15 16 17 18 19 20 21 22 23 24 25 26 27 28 29 30 31 32 33 34 35 36 37 38 39 40 41 42 43 44 45 46 47 48 49 50
000
ASUS44 KHUN 270510
RWRHUN

WEATHER ROUNDUP FOR THE TENNESSEE VALLEY
NATIONAL WEATHER SERVICE HUNTSVILLE AL
1200 AM CDT MON APR 27 2015

ALZ001>004-270600-
NORTHWEST ALABAMA

CITY           SKY/WX    TMP DP  RH WIND       PRES   REMARKS
COURTLAND HCN    N/A     52 N/A N/A CALM        N/A
RUSSELLVILLE     N/A     52 N/A N/A MISG        N/A
SHOALS AIRPORT CLEAR     52  47  83 CALM      29.90S
SHOALS TVA RES   N/A     52 N/A N/A MISG        N/A
$$

ALZ005>007-016-270600-
NORTH CENTRAL ALABAMA

CITY           SKY/WX    TMP DP  RH WIND       PRES   REMARKS
DECATUR AP     CLEAR     51  48  89 N6        29.88F
HUNTSVILLE AP  CLEAR     52  47  83 CALM      29.87F
HUN NWS/UAH      N/A     52  45  78 N2          N/A
MERIDIANVILLE  CLEAR     48  43  81 CALM      29.88F
REDSTONE ARSN  CLEAR     50  47  89 N7        29.87F
VINEMONT AP    FAIR      50  47  89 N3        29.89R
$$

ALZ008>010-270600-
NORTHEAST ALABAMA

CITY           SKY/WX    TMP DP  RH WIND       PRES   REMARKS
ALBERTVILLE    PTCLDY    52  52 100 N3        29.85S
FORT PAYNE     CLEAR     50  43  76 CALM      29.85S
SCOTTSBORO HCN   N/A     50 N/A N/A MISG        N/A
VALLEY HEAD      N/A     50 N/A N/A MISG        N/A
$$

TNZ076-096-097-270600-
SOUTHEASTERN MIDDLE TENNESSEE

CITY           SKY/WX    TMP DP  RH WIND       PRES   REMARKS
TULLAHOMA      CLEAR     45  45 100 N5        29.88F
WINCHESTER     CLEAR     45  45 100 CALM      29.88F
$$

...SURROUNDING SITES...

CITY           SKY/WX    TMP DP  RH WIND       PRES   REMARKS
ATLANTA        PTCLDY    58  48  69 N12       29.80R
ANNISTON       PTCLDY    57  48  72 NE13G20   29.83S
BIRMINGHAM     MOCLDY    55  50  83 N9        29.85S
CHATTANOOGA    CLEAR     51  46  83 NW3       29.86F
CORINTH        FAIR      52  48  87 NE5       29.89S
DALTON         CLEAR     50  48  93 NW7       29.84S
GADSDEN        CLEAR    N/A N/A N/A N5        29.84F
GOLDEN TRNGL   PTCLDY    55  50  82 N9        29.83S
HALEYVILLE       N/A     50  48  92 N5        29.89F
JACKSON TN     FOG       46  44  93 CALM      29.92S VSB 1/2
MEMPHIS        MOCLDY    56  47  71 NE8       29.89F
NASHVILLE      CLEAR     50  47  89 CALM      29.90F
OXFORD MS      FAIR      52  46  82 NE9       29.89S
ROME           CLEAR     53  47  79 N6        29.84S
SAVANNAH       CLEAR     46  32  57 CALM      29.90S
TUPELO         PTCLDY    54  47  77 NE9       29.87S
TUSCALOOSA     CLEAR     62  53  72 NE12      29.83R
$$

...GULF COAST WEATHER...

CITY           SKY/WX    TMP DP  RH WIND       PRES   REMARKS
GULFPORT       CLOUDY    75  73  93 CALM      29.73F FOG
PASCAGOULA     CLOUDY    72  71  97 CALM      29.73S FOG
MOBILE         CLOUDY    70  69  97 W3        29.75S
GULF SHORES    CLOUDY    73  71  94 E3        29.70F
PENSACOLA      CLOUDY    74  73  97 CALM      29.73F
DESTIN         CLOUDY    76  73  91 VRB3      29.73S
PANAMA CITY    PTCLDY    72  70  96 NW5       29.73S
APPALACHICOLA  MOCLDY    75  71  87 NW3       29.72S
$$




USA.gov is the U.S. government's official web portal to all federal, state and local government web resources and services.